Regional Weather Roundup
Issued by NWS Nashville, TN

Home | Current Version | Previous Version | Text Only | Print | Product List | Glossary On
Versions: 1 2 3 4 5 6 7 8 9 10 11 12 13 14 15 16 17 18 19 20 21 22 23 24 25 26 27 28 29 30 31 32 33 34 35 36 37 38 39 40 41 42 43 44 45 46 47 48 49 50
253
ASUS44 KOHX 200710
RWROHX
MIDDLE TENNESSEE HOURLY WEATHER ROUNDUP
NATIONAL WEATHER SERVICE NASHVILLE TN
100 AM CST MON NOV 20 2017

NOTE: "FAIR" INDICATES FEW OR NO CLOUDS BELOW 12,000 FEET WITH
NO SIGNIFICANT WEATHER AND/OR OBSTRUCTIONS TO VISIBILITY.

* THESE REPORTS ARE NOT UNDER NWS QUALITY CONTROL AND MAY NOT
  REPORT WEATHER SUCH AS PRECIPITATION AND FOG.


TNZ005>011-023>034-057-059-062>066-078-080-200800
...NORTHERN MIDDLE TENNESSEE...

CITY           SKY/WX    TMP DP  RH WIND       PRES   REMARKS
CLARKSVILLE    CLOUDY    26  23  88 S3        30.25S
CROSSVILLE     CLEAR     27  21  78 CALM      30.19S
GALLATIN       CLEAR     27  25  93 CALM      30.28R
NASHVILLE      CLEAR     30  26  85 S3        30.26S
PORTLAND       CLEAR     27  25  93 CALM      30.24R
SMYRNA         CLEAR     25  22  88 CALM      30.27S
SPARTA         CLEAR     23  23 100 CALM      30.23R
SPRINGFIELD    CLEAR     27  25  93 CALM      30.23S
WEST NASHVILLE CLEAR     30  28  93 CALM      30.24S
$$
TNZ056-058-060-061-075>077-079-093>097-200800
...SOUTHERN MIDDLE TENNESSEE...

CITY           SKY/WX    TMP DP  RH WIND       PRES   REMARKS
COLUMBIA       CLEAR     27  27 100 CALM      30.23F
FAYETTEVILLE   CLEAR     32  25  74 CALM      30.22S
MCMINNVILLE    CLEAR     25  25 100 CALM      30.23R
MURFREESBORO   CLEAR     28  25  89 CALM      30.25
PULASKI        CLEAR     27  25  93 CALM      30.25S
SHELBYVILLE    CLEAR     25  25 100 CALM      30.24S
TULLAHOMA      CLEAR     28  23  80 CALM      30.21S
WINCHESTER     CLEAR     21  21 100 CALM      30.22F
$$


...KEY TO REMARKS...
VSB - VISIBILITY IN MILES
WCI - WIND CHILL INDEX
HX  - HEAT INDEX





USA.gov is the U.S. government's official web portal to all federal, state and local government web resources and services.